Year,Month,Day,Hour,Minute,Value (Times are PST for temperature in C)
2014,07,16,00,00,19.60
2014,07,16,00,01,19.60
2014,07,16,00,02,19.60
2014,07,16,00,03,19.60
2014,07,16,00,04,19.60
2014,07,16,00,05,19.60
2014,07,16,00,06,19.50
2014,07,16,00,07,19.50
2014,07,16,00,08,19.40
2014,07,16,00,09,19.40
2014,07,16,00,10,19.40
2014,07,16,00,11,19.30
2014,07,16,00,12,19.30
2014,07,16,00,13,19.30
2014,07,16,00,14,19.30
2014,07,16,00,15,19.30
2014,07,16,00,16,19.20
2014,07,16,00,17,19.20
2014,07,16,00,18,19.20
2014,07,16,00,19,19.20
2014,07,16,00,20,19.10
2014,07,16,00,21,19.10
2014,07,16,00,22,19.00
2014,07,16,00,23,19.00
2014,07,16,00,24,19.00
2014,07,16,00,25,18.90
2014,07,16,00,26,18.90
2014,07,16,00,27,18.90
2014,07,16,00,28,18.80
2014,07,16,00,29,18.80
2014,07,16,00,30,18.80
2014,07,16,00,31,18.70
2014,07,16,00,32,18.70
2014,07,16,00,33,18.60
2014,07,16,00,34,18.60
2014,07,16,00,35,18.50
2014,07,16,00,36,18.50
2014,07,16,00,37,18.50
2014,07,16,00,38,18.40
2014,07,16,00,39,18.40
2014,07,16,00,40,18.30
2014,07,16,00,41,18.30
2014,07,16,00,42,18.30
2014,07,16,00,43,18.20
2014,07,16,00,44,18.20
2014,07,16,00,45,18.20
2014,07,16,00,46,18.10
2014,07,16,00,47,18.10
2014,07,16,00,48,18.00
2014,07,16,00,49,17.90
2014,07,16,00,50,17.90
2014,07,16,00,51,17.80
2014,07,16,00,52,17.80
2014,07,16,00,53,17.80
2014,07,16,00,54,17.80
2014,07,16,00,55,17.70
2014,07,16,00,56,17.70
2014,07,16,00,57,17.70
2014,07,16,00,58,17.60
2014,07,16,00,59,17.60
2014,07,16,01,00,17.60
2014,07,16,01,01,17.50
2014,07,16,01,02,17.50
2014,07,16,01,03,17.40
2014,07,16,01,04,17.40
2014,07,16,01,05,17.40
2014,07,16,01,06,17.40
2014,07,16,01,07,17.40
2014,07,16,01,08,17.30
2014,07,16,01,09,17.30
2014,07,16,01,10,17.30
2014,07,16,01,11,17.30
2014,07,16,01,12,17.20
2014,07,16,01,13,17.20
2014,07,16,01,14,17.10
2014,07,16,01,15,17.10
2014,07,16,01,16,17.10
2014,07,16,01,17,17.00
2014,07,16,01,18,17.00
2014,07,16,01,19,16.90
2014,07,16,01,20,16.90
2014,07,16,01,21,16.90
2014,07,16,01,22,16.80
2014,07,16,01,23,16.80
2014,07,16,01,24,16.80
2014,07,16,01,25,16.70
2014,07,16,01,26,16.70
2014,07,16,01,27,16.70
2014,07,16,01,28,16.60
2014,07,16,01,29,16.60
2014,07,16,01,30,16.60
2014,07,16,01,31,16.50
2014,07,16,01,32,16.50
2014,07,16,01,33,16.40
2014,07,16,01,34,16.40
2014,07,16,01,35,16.30
2014,07,16,01,36,16.30
2014,07,16,01,37,16.30
2014,07,16,01,38,16.30
2014,07,16,01,39,16.20
2014,07,16,01,40,16.20
2014,07,16,01,41,16.20
2014,07,16,01,42,16.20
2014,07,16,01,43,16.20
2014,07,16,01,44,16.10
2014,07,16,01,45,16.10
2014,07,16,01,46,16.10
2014,07,16,01,47,16.10
2014,07,16,01,48,16.00
2014,07,16,01,49,16.00
2014,07,16,01,50,16.00
2014,07,16,01,51,15.90
2014,07,16,01,52,15.90
2014,07,16,01,53,15.90
2014,07,16,01,54,15.90
2014,07,16,01,55,15.80
2014,07,16,01,56,15.80
2014,07,16,01,57,15.80
2014,07,16,01,58,15.80
2014,07,16,01,59,15.70
2014,07,16,02,00,15.70
2014,07,16,02,01,15.70
2014,07,16,02,02,15.70
2014,07,16,02,03,15.70
2014,07,16,02,04,15.70
2014,07,16,02,05,15.60
2014,07,16,02,06,15.60
2014,07,16,02,07,15.60
2014,07,16,02,08,15.60
2014,07,16,02,09,15.60
2014,07,16,02,10,15.50
2014,07,16,02,11,15.50
2014,07,16,02,12,15.50
2014,07,16,02,13,15.50
2014,07,16,02,14,15.40
2014,07,16,02,15,15.40
2014,07,16,02,16,15.40
2014,07,16,02,17,15.40
2014,07,16,02,18,15.40
2014,07,16,02,19,15.40
2014,07,16,02,20,15.40
2014,07,16,02,21,15.40
2014,07,16,02,22,15.40
2014,07,16,02,23,15.40
2014,07,16,02,24,15.40
2014,07,16,02,25,15.40
2014,07,16,02,26,15.40
2014,07,16,02,27,15.40
2014,07,16,02,28,15.40
2014,07,16,02,29,15.40
2014,07,16,02,30,15.40
2014,07,16,02,31,15.30
2014,07,16,02,32,15.30
2014,07,16,02,33,15.30
2014,07,16,02,34,15.30
2014,07,16,02,35,15.40
2014,07,16,02,36,15.40
2014,07,16,02,37,15.40
2014,07,16,02,38,15.40
2014,07,16,02,39,15.40
2014,07,16,02,40,15.40
2014,07,16,02,41,15.40
2014,07,16,02,42,15.40
2014,07,16,02,43,15.30
2014,07,16,02,44,15.30
2014,07,16,02,45,15.30
2014,07,16,02,46,15.30
2014,07,16,02,47,15.30
2014,07,16,02,48,15.30
2014,07,16,02,49,15.30
2014,07,16,02,50,15.30
2014,07,16,02,51,15.30
2014,07,16,02,52,15.30
2014,07,16,02,53,15.30
2014,07,16,02,54,15.30
2014,07,16,02,55,15.20
2014,07,16,02,56,15.20
2014,07,16,02,57,15.20
2014,07,16,02,58,15.20
2014,07,16,02,59,15.20
2014,07,16,03,00,15.20
2014,07,16,03,01,15.20
2014,07,16,03,02,15.20
2014,07,16,03,03,15.20
2014,07,16,03,04,15.20
2014,07,16,03,05,15.20
2014,07,16,03,06,15.20
2014,07,16,03,07,15.20
2014,07,16,03,08,15.20
2014,07,16,03,09,15.30
2014,07,16,03,10,15.30
2014,07,16,03,11,15.30
2014,07,16,03,12,15.20
2014,07,16,03,13,15.20
2014,07,16,03,14,15.20
2014,07,16,03,15,15.20
2014,07,16,03,16,15.20
2014,07,16,03,17,15.20
2014,07,16,03,18,15.10
2014,07,16,03,19,15.10
2014,07,16,03,20,15.20
2014,07,16,03,21,15.20
2014,07,16,03,22,15.20
2014,07,16,03,23,15.20
2014,07,16,03,24,15.20
2014,07,16,03,25,15.20
2014,07,16,03,26,15.30
2014,07,16,03,27,15.30
2014,07,16,03,28,15.30
2014,07,16,03,29,15.30
2014,07,16,03,30,15.30
2014,07,16,03,31,15.30
2014,07,16,03,32,15.30
2014,07,16,03,33,15.30
2014,07,16,03,34,15.40
2014,07,16,03,35,15.30
2014,07,16,03,36,15.30
2014,07,16,03,37,15.30
2014,07,16,03,38,15.30
2014,07,16,03,39,15.30
2014,07,16,03,40,15.30
2014,07,16,03,41,15.30
2014,07,16,03,42,15.30
2014,07,16,03,43,15.30
2014,07,16,03,44,15.30
2014,07,16,03,45,15.30
2014,07,16,03,46,15.30
2014,07,16,03,47,15.30
2014,07,16,03,48,15.30
2014,07,16,03,49,15.30
2014,07,16,03,50,15.30
2014,07,16,03,51,15.30
2014,07,16,03,52,15.30
2014,07,16,03,53,15.30
2014,07,16,03,54,15.40
2014,07,16,03,55,15.40
2014,07,16,03,56,15.40
2014,07,16,03,57,15.40
2014,07,16,03,58,15.40
2014,07,16,03,59,15.40
2014,07,16,04,00,15.40
2014,07,16,04,01,15.40
2014,07,16,04,02,15.40
2014,07,16,04,03,15.40
2014,07,16,04,04,15.40
2014,07,16,04,05,15.40
2014,07,16,04,06,15.30
2014,07,16,04,07,15.30
2014,07,16,04,08,15.30
2014,07,16,04,09,15.30
2014,07,16,04,10,15.30
2014,07,16,04,11,15.30
2014,07,16,04,12,15.30
2014,07,16,04,13,15.30
2014,07,16,04,14,15.30
2014,07,16,04,15,15.20
2014,07,16,04,16,15.30
2014,07,16,04,17,15.30
2014,07,16,04,18,15.30
2014,07,16,04,19,15.30
2014,07,16,04,20,15.30
2014,07,16,04,21,15.20
2014,07,16,04,22,15.20
2014,07,16,04,23,15.20
2014,07,16,04,24,15.20
2014,07,16,04,25,15.20
2014,07,16,04,26,15.20
2014,07,16,04,27,15.20
2014,07,16,04,28,15.10
2014,07,16,04,29,15.10
2014,07,16,04,30,15.10
2014,07,16,04,31,15.10
2014,07,16,04,32,15.10
2014,07,16,04,33,15.10
2014,07,16,04,34,15.00
2014,07,16,04,35,15.00
2014,07,16,04,36,15.00
2014,07,16,04,37,14.90
2014,07,16,04,38,14.90
2014,07,16,04,39,14.80
2014,07,16,04,40,14.80
2014,07,16,04,41,14.70
2014,07,16,04,42,14.70
2014,07,16,04,43,14.60
2014,07,16,04,44,14.50
2014,07,16,04,45,14.50
2014,07,16,04,46,14.40
2014,07,16,04,47,14.30
2014,07,16,04,48,14.30
2014,07,16,04,49,14.20
2014,07,16,04,50,14.20
2014,07,16,04,51,14.10
2014,07,16,04,52,14.10
2014,07,16,04,53,14.00
2014,07,16,04,54,14.00
2014,07,16,04,55,13.90
2014,07,16,04,56,13.90
2014,07,16,04,57,13.80
2014,07,16,04,58,13.80
2014,07,16,04,59,13.80
2014,07,16,05,00,13.70
2014,07,16,05,01,13.70
2014,07,16,05,02,13.70
2014,07,16,05,03,13.70
2014,07,16,05,04,13.60
2014,07,16,05,05,13.60
2014,07,16,05,06,13.60
2014,07,16,05,07,13.60
2014,07,16,05,08,13.50
2014,07,16,05,09,13.50
2014,07,16,05,10,13.50
2014,07,16,05,11,13.40
2014,07,16,05,12,13.40
2014,07,16,05,13,13.40
2014,07,16,05,14,13.40
2014,07,16,05,15,13.30
2014,07,16,05,16,13.30
2014,07,16,05,17,13.30
2014,07,16,05,18,13.20
2014,07,16,05,19,13.20
2014,07,16,05,20,13.20
2014,07,16,05,21,13.20
2014,07,16,05,22,13.10
2014,07,16,05,23,13.10
2014,07,16,05,24,13.10
2014,07,16,05,25,13.10
2014,07,16,05,26,13.00
2014,07,16,05,27,13.00
2014,07,16,05,28,12.90
2014,07,16,05,29,12.90
2014,07,16,05,30,12.90
2014,07,16,05,31,12.90
2014,07,16,05,32,12.80
2014,07,16,05,33,12.80
2014,07,16,05,34,12.80
2014,07,16,05,35,12.80
2014,07,16,05,36,12.70
2014,07,16,05,37,12.70
2014,07,16,05,38,12.70
2014,07,16,05,39,12.70
2014,07,16,05,40,12.60
2014,07,16,05,41,12.60
2014,07,16,05,42,12.60
2014,07,16,05,43,12.60
2014,07,16,05,44,12.60
2014,07,16,05,45,12.60
2014,07,16,05,46,12.60
2014,07,16,05,47,12.60
2014,07,16,05,48,12.50
2014,07,16,05,49,12.50
2014,07,16,05,50,12.50
2014,07,16,05,51,12.50
2014,07,16,05,52,12.50
2014,07,16,05,53,12.40
2014,07,16,05,54,12.40
2014,07,16,05,55,12.40
2014,07,16,05,56,12.40
2014,07,16,05,57,12.40
2014,07,16,05,58,12.40
2014,07,16,05,59,12.40
2014,07,16,06,00,12.40
2014,07,16,06,01,12.40
2014,07,16,06,02,12.40
2014,07,16,06,03,12.40
2014,07,16,06,04,12.40
2014,07,16,06,05,12.40
2014,07,16,06,06,12.40
2014,07,16,06,07,12.40
2014,07,16,06,08,12.40
2014,07,16,06,09,12.40
2014,07,16,06,10,12.40
2014,07,16,06,11,12.40
2014,07,16,06,12,12.30
2014,07,16,06,13,12.40
2014,07,16,06,14,12.40
2014,07,16,06,15,12.40
2014,07,16,06,16,12.40
2014,07,16,06,17,12.40
2014,07,16,06,18,12.40
2014,07,16,06,19,12.40
2014,07,16,06,20,12.40
2014,07,16,06,21,12.40
2014,07,16,06,22,12.40
2014,07,16,06,23,12.40
2014,07,16,06,24,12.40
2014,07,16,06,25,12.40
2014,07,16,06,26,12.40
2014,07,16,06,27,12.40
2014,07,16,06,28,12.40
2014,07,16,06,29,12.50
2014,07,16,06,30,12.50
2014,07,16,06,31,12.50
2014,07,16,06,32,12.50
2014,07,16,06,33,12.50
2014,07,16,06,34,12.50
2014,07,16,06,35,12.60
2014,07,16,06,36,12.60
2014,07,16,06,37,12.60
2014,07,16,06,38,12.60
2014,07,16,06,39,12.60
2014,07,16,06,40,12.60
2014,07,16,06,41,12.70
2014,07,16,06,42,12.70
2014,07,16,06,43,12.70
2014,07,16,06,44,12.70
2014,07,16,06,45,12.70
2014,07,16,06,46,12.70
2014,07,16,06,47,12.70
2014,07,16,06,48,12.80
2014,07,16,06,49,12.80
2014,07,16,06,50,12.80
2014,07,16,06,51,12.80
2014,07,16,06,52,12.80
2014,07,16,06,53,12.80
2014,07,16,06,54,12.90
2014,07,16,06,55,12.90
2014,07,16,06,56,12.90
2014,07,16,06,57,12.90
2014,07,16,06,58,12.90
2014,07,16,06,59,12.90
2014,07,16,07,00,13.00
2014,07,16,07,01,13.00
2014,07,16,07,02,13.10
2014,07,16,07,03,13.10
2014,07,16,07,04,13.20
2014,07,16,07,05,13.20
2014,07,16,07,06,13.30
2014,07,16,07,07,13.30
2014,07,16,07,08,13.30
2014,07,16,07,09,13.40
2014,07,16,07,10,13.50
2014,07,16,07,11,13.60
2014,07,16,07,12,13.60
2014,07,16,07,13,13.70
2014,07,16,07,14,13.80
2014,07,16,07,15,13.80
2014,07,16,07,16,13.90
2014,07,16,07,17,14.00
2014,07,16,07,18,14.00
2014,07,16,07,19,14.10
2014,07,16,07,20,14.10
2014,07,16,07,21,14.20
2014,07,16,07,22,14.20
2014,07,16,07,23,14.20
2014,07,16,07,24,14.30
2014,07,16,07,25,14.30
2014,07,16,07,26,14.40
2014,07,16,07,27,14.50
2014,07,16,07,28,14.50
2014,07,16,07,29,14.60
2014,07,16,07,30,14.60
2014,07,16,07,31,14.70
2014,07,16,07,32,14.70
2014,07,16,07,33,14.70
2014,07,16,07,34,14.80
2014,07,16,07,35,14.80
2014,07,16,07,36,14.90
2014,07,16,07,37,14.90
2014,07,16,07,38,15.00
2014,07,16,07,39,15.10
2014,07,16,07,40,15.20
2014,07,16,07,41,15.20
2014,07,16,07,42,15.30
2014,07,16,07,43,15.40
2014,07,16,07,44,15.50
2014,07,16,07,45,15.70
2014,07,16,07,46,15.80
2014,07,16,07,47,15.90
2014,07,16,07,48,16.10
2014,07,16,07,49,16.20
2014,07,16,07,50,16.40
2014,07,16,07,51,16.60
2014,07,16,07,52,16.70
2014,07,16,07,53,16.90
2014,07,16,07,54,17.00
2014,07,16,07,55,17.20
2014,07,16,07,56,17.40
2014,07,16,07,57,17.50
2014,07,16,07,58,17.70
2014,07,16,07,59,17.90
2014,07,16,08,00,18.00
2014,07,16,08,01,18.20
2014,07,16,08,02,18.40
2014,07,16,08,03,18.50
2014,07,16,08,04,18.70
2014,07,16,08,05,18.80
2014,07,16,08,06,18.90
2014,07,16,08,07,19.00
2014,07,16,08,08,19.10
2014,07,16,08,09,19.20
2014,07,16,08,10,19.30
2014,07,16,08,11,19.40
2014,07,16,08,12,19.50
2014,07,16,08,13,19.60
2014,07,16,08,14,19.70
2014,07,16,08,15,19.80
2014,07,16,08,16,19.80
2014,07,16,08,17,19.80
2014,07,16,08,18,19.80
2014,07,16,08,19,19.90
2014,07,16,08,20,19.90
2014,07,16,08,21,20.00
2014,07,16,08,22,20.00
2014,07,16,08,23,20.10
2014,07,16,08,24,20.10
2014,07,16,08,25,20.10
2014,07,16,08,26,20.20
2014,07,16,08,27,20.30
2014,07,16,08,28,20.30
2014,07,16,08,29,20.30
2014,07,16,08,30,20.40
2014,07,16,08,31,20.40
2014,07,16,08,32,20.40
2014,07,16,08,33,20.40
2014,07,16,08,34,20.40
2014,07,16,08,35,20.30
2014,07,16,08,36,20.30
2014,07,16,08,37,20.30
2014,07,16,08,38,20.30
2014,07,16,08,39,20.30
2014,07,16,08,40,20.30
2014,07,16,08,41,20.40
2014,07,16,08,42,20.40
2014,07,16,08,43,20.40
2014,07,16,08,44,20.40
2014,07,16,08,45,20.40
2014,07,16,08,46,20.40
2014,07,16,08,47,20.40
2014,07,16,08,48,20.50
2014,07,16,08,49,20.50
2014,07,16,08,50,20.50
2014,07,16,08,51,20.50
2014,07,16,08,52,20.50
2014,07,16,08,53,20.50
2014,07,16,08,54,20.50
2014,07,16,08,55,20.40
2014,07,16,08,56,20.40
2014,07,16,08,57,20.30
2014,07,16,08,58,20.30
2014,07,16,08,59,20.20
2014,07,16,09,00,20.10
2014,07,16,09,01,20.00
2014,07,16,09,02,19.90
2014,07,16,09,03,19.90
2014,07,16,09,04,19.90
2014,07,16,09,05,19.80
2014,07,16,09,06,19.80
2014,07,16,09,07,19.80
2014,07,16,09,08,19.80
2014,07,16,09,09,19.70
2014,07,16,09,10,19.70
2014,07,16,09,11,19.70
2014,07,16,09,12,19.70
2014,07,16,09,13,19.80
2014,07,16,09,14,19.80
2014,07,16,09,15,19.80
2014,07,16,09,16,19.80
2014,07,16,09,17,19.80
2014,07,16,09,18,19.80
2014,07,16,09,19,19.80
2014,07,16,09,20,19.80
2014,07,16,09,21,19.80
2014,07,16,09,22,19.70
2014,07,16,09,23,19.70
2014,07,16,09,24,19.70
2014,07,16,09,25,19.70
2014,07,16,09,26,19.70
2014,07,16,09,27,19.60
2014,07,16,09,28,19.60
2014,07,16,09,29,19.60
2014,07,16,09,30,19.60
2014,07,16,09,31,19.60
2014,07,16,09,32,19.70
2014,07,16,09,33,19.70
2014,07,16,09,34,19.70
2014,07,16,09,35,19.80
2014,07,16,09,36,19.80
2014,07,16,09,37,19.90
2014,07,16,09,38,20.00
2014,07,16,09,39,20.00
2014,07,16,09,40,20.10
2014,07,16,09,41,20.10
2014,07,16,09,42,20.10
2014,07,16,09,43,20.20
2014,07,16,09,44,20.30
2014,07,16,09,45,20.30
2014,07,16,09,46,20.40
2014,07,16,09,47,20.50
2014,07,16,09,48,20.60
2014,07,16,09,49,20.70
2014,07,16,09,50,20.70
2014,07,16,09,51,20.80
2014,07,16,09,52,20.80
2014,07,16,09,53,20.70
2014,07,16,09,54,20.70
2014,07,16,09,55,20.70
2014,07,16,09,56,20.70
2014,07,16,09,57,20.70
2014,07,16,09,58,20.70
2014,07,16,09,59,20.70
2014,07,16,10,00,20.70
2014,07,16,10,01,20.70
2014,07,16,10,02,20.70
2014,07,16,10,03,20.70
2014,07,16,10,04,20.70
2014,07,16,10,05,20.70
2014,07,16,10,06,20.60
2014,07,16,10,07,20.60
2014,07,16,10,08,20.60
2014,07,16,10,09,20.50
2014,07,16,10,10,20.50
2014,07,16,10,11,20.40
2014,07,16,10,12,20.40
2014,07,16,10,13,20.40
2014,07,16,10,14,20.40
2014,07,16,10,15,20.40
2014,07,16,10,16,20.40
2014,07,16,10,17,20.40
2014,07,16,10,18,20.50
2014,07,16,10,19,20.50
2014,07,16,10,20,20.60
2014,07,16,10,21,20.60
2014,07,16,10,22,20.60
2014,07,16,10,23,20.60
2014,07,16,10,24,20.60
2014,07,16,10,25,20.60
2014,07,16,10,26,20.60
2014,07,16,10,27,20.60
2014,07,16,10,28,20.60
2014,07,16,10,29,20.60
2014,07,16,10,30,20.60
2014,07,16,10,31,20.60
2014,07,16,10,32,20.50
2014,07,16,10,33,20.50
2014,07,16,10,34,20.50
2014,07,16,10,35,20.60
2014,07,16,10,36,20.60
2014,07,16,10,37,20.60
2014,07,16,10,38,20.80
2014,07,16,10,39,20.80
2014,07,16,10,40,20.80
2014,07,16,10,41,20.80
2014,07,16,10,42,20.80
2014,07,16,10,43,20.90
2014,07,16,10,44,20.90
2014,07,16,10,45,21.00
2014,07,16,10,46,21.00
2014,07,16,10,47,21.10
2014,07,16,10,48,21.20
2014,07,16,10,49,21.20
2014,07,16,10,50,21.30
2014,07,16,10,51,21.30
2014,07,16,10,52,21.40
2014,07,16,10,53,21.50
2014,07,16,10,54,21.50
2014,07,16,10,55,21.60
2014,07,16,10,56,21.50
2014,07,16,10,57,21.40
2014,07,16,10,58,21.20
2014,07,16,10,59,21.20
2014,07,16,11,00,21.10
2014,07,16,11,01,21.10
2014,07,16,11,02,21.10
2014,07,16,11,03,21.20
2014,07,16,11,04,21.20
2014,07,16,11,05,21.20
2014,07,16,11,06,21.20
2014,07,16,11,07,21.20
2014,07,16,11,08,21.20
2014,07,16,11,09,21.10
2014,07,16,11,10,21.10
2014,07,16,11,11,21.10
2014,07,16,11,12,21.10
2014,07,16,11,13,21.20
2014,07,16,11,14,21.20
2014,07,16,11,15,21.20
2014,07,16,11,16,21.30
2014,07,16,11,17,21.30
2014,07,16,11,18,21.30
2014,07,16,11,19,21.30
2014,07,16,11,20,21.30
2014,07,16,11,21,21.30
2014,07,16,11,22,21.30
2014,07,16,11,23,21.30
2014,07,16,11,24,21.40
2014,07,16,11,25,21.40
2014,07,16,11,26,21.50
2014,07,16,11,27,21.50
2014,07,16,11,28,21.60
2014,07,16,11,29,21.60
2014,07,16,11,30,21.60
2014,07,16,11,31,21.60
2014,07,16,11,32,21.60
2014,07,16,11,33,21.60
2014,07,16,11,34,21.60
2014,07,16,11,35,21.60
2014,07,16,11,36,21.50
2014,07,16,11,37,21.50
2014,07,16,11,38,21.50
2014,07,16,11,39,21.40
2014,07,16,11,40,21.40
2014,07,16,11,41,21.30
2014,07,16,11,42,21.30
2014,07,16,11,43,21.20
2014,07,16,11,44,21.20
2014,07,16,11,45,21.10
2014,07,16,11,46,21.10
2014,07,16,11,47,21.10
2014,07,16,11,48,21.20
2014,07,16,11,49,21.10
2014,07,16,11,50,21.20
2014,07,16,11,51,21.20
2014,07,16,11,52,21.30
2014,07,16,11,53,21.30
2014,07,16,11,54,21.40
2014,07,16,11,55,21.50
2014,07,16,11,56,21.60
2014,07,16,11,57,21.60
2014,07,16,11,58,21.60
2014,07,16,11,59,21.60
2014,07,16,12,00,21.50
2014,07,16,12,01,21.50
2014,07,16,12,02,21.50
2014,07,16,12,03,21.40
2014,07,16,12,04,21.40
2014,07,16,12,05,21.40
2014,07,16,12,06,21.40
2014,07,16,12,07,21.40
2014,07,16,12,08,21.40
2014,07,16,12,09,21.40
2014,07,16,12,10,21.40
2014,07,16,12,11,21.40
2014,07,16,12,12,21.40
2014,07,16,12,13,21.40
2014,07,16,12,14,21.40
2014,07,16,12,15,21.30
2014,07,16,12,16,21.10
2014,07,16,12,17,21.10
2014,07,16,12,18,21.00
2014,07,16,12,19,21.00
2014,07,16,12,20,20.90
2014,07,16,12,21,20.90
2014,07,16,12,22,20.90
2014,07,16,12,23,20.90
2014,07,16,12,24,20.90
2014,07,16,12,25,20.90
2014,07,16,12,26,20.90
2014,07,16,12,27,20.90
2014,07,16,12,28,20.80
2014,07,16,12,29,20.80
2014,07,16,12,30,20.90
2014,07,16,12,31,20.90
2014,07,16,12,32,20.90
2014,07,16,12,33,20.90
2014,07,16,12,34,20.90
2014,07,16,12,35,20.90
2014,07,16,12,36,21.00
2014,07,16,12,37,21.10
2014,07,16,12,38,21.10
2014,07,16,12,39,21.10
2014,07,16,12,40,21.20
2014,07,16,12,41,21.20
2014,07,16,12,42,21.20
2014,07,16,12,43,21.20
2014,07,16,12,44,21.20
2014,07,16,12,45,21.20
2014,07,16,12,46,21.20
2014,07,16,12,47,21.30
2014,07,16,12,48,21.30
2014,07,16,12,49,21.30
2014,07,16,12,50,21.30
2014,07,16,12,51,21.30
2014,07,16,12,52,21.20
2014,07,16,12,53,21.20
2014,07,16,12,54,21.20
2014,07,16,12,55,21.20
2014,07,16,12,56,21.20
2014,07,16,12,57,21.20
2014,07,16,12,58,21.20
2014,07,16,12,59,21.30
2014,07,16,13,00,21.30
2014,07,16,13,01,21.30
2014,07,16,13,02,21.30
2014,07,16,13,03,21.40
2014,07,16,13,04,21.40
2014,07,16,13,05,21.40
2014,07,16,13,06,21.50
2014,07,16,13,07,21.50
2014,07,16,13,08,21.60
2014,07,16,13,09,21.70
2014,07,16,13,10,21.70
2014,07,16,13,11,21.70
2014,07,16,13,12,21.80
2014,07,16,13,13,21.70
2014,07,16,13,14,21.70
2014,07,16,13,15,21.70
2014,07,16,13,16,21.70
2014,07,16,13,17,21.70
2014,07,16,13,18,21.70
2014,07,16,13,19,21.70
2014,07,16,13,20,21.70
2014,07,16,13,21,21.70
2014,07,16,13,22,21.70
2014,07,16,13,23,21.70
2014,07,16,13,24,21.70
2014,07,16,13,25,21.70
2014,07,16,13,26,21.70
2014,07,16,13,27,21.70
2014,07,16,13,28,21.60
2014,07,16,13,29,21.60
2014,07,16,13,30,21.60
2014,07,16,13,31,21.50
2014,07,16,13,32,21.50
2014,07,16,13,33,21.40
2014,07,16,13,34,21.50
2014,07,16,13,35,21.40
2014,07,16,13,36,21.40
2014,07,16,13,37,21.40
2014,07,16,13,38,21.30
2014,07,16,13,39,21.30
2014,07,16,13,40,21.40
2014,07,16,13,41,21.40
2014,07,16,13,42,21.40
2014,07,16,13,43,21.50
2014,07,16,13,44,21.60
2014,07,16,13,45,21.70
2014,07,16,13,46,21.80
2014,07,16,13,47,21.80
2014,07,16,13,48,21.90
2014,07,16,13,49,22.00
2014,07,16,13,50,22.00
2014,07,16,13,51,22.10
2014,07,16,13,52,22.20
2014,07,16,13,53,22.20
2014,07,16,13,54,22.30
2014,07,16,13,55,22.30
2014,07,16,13,56,22.30
2014,07,16,13,57,22.20
2014,07,16,13,58,22.20
2014,07,16,13,59,22.20
2014,07,16,14,00,22.20
2014,07,16,14,01,22.20
2014,07,16,14,02,22.20
2014,07,16,14,03,22.20
2014,07,16,14,04,22.20
2014,07,16,14,05,22.20
2014,07,16,14,06,22.10
2014,07,16,14,07,22.10
2014,07,16,14,08,22.20
2014,07,16,14,09,22.20
2014,07,16,14,10,22.20
2014,07,16,14,11,22.30
2014,07,16,14,12,22.20
2014,07,16,14,13,22.20
2014,07,16,14,14,22.30
2014,07,16,14,15,22.30
2014,07,16,14,16,22.30
2014,07,16,14,17,22.30
2014,07,16,14,18,22.30
2014,07,16,14,19,22.40
2014,07,16,14,20,22.50
2014,07,16,14,21,22.60
2014,07,16,14,22,22.60
2014,07,16,14,23,22.70
2014,07,16,14,24,22.70
2014,07,16,14,25,22.70
2014,07,16,14,26,22.70
2014,07,16,14,27,22.60
2014,07,16,14,28,22.70
2014,07,16,14,29,22.70
2014,07,16,14,30,22.70
2014,07,16,14,31,22.70
2014,07,16,14,32,22.70
2014,07,16,14,33,22.70
2014,07,16,14,34,22.70
2014,07,16,14,35,22.80
2014,07,16,14,36,22.90
2014,07,16,14,37,22.90
2014,07,16,14,38,22.80
2014,07,16,14,39,22.80
2014,07,16,14,40,22.80
2014,07,16,14,41,22.80
2014,07,16,14,42,22.80
2014,07,16,14,43,22.90
2014,07,16,14,44,22.90
2014,07,16,14,45,23.00
2014,07,16,14,46,23.10
2014,07,16,14,47,23.10
2014,07,16,14,48,23.20
2014,07,16,14,49,23.20
2014,07,16,14,50,23.30
2014,07,16,14,51,23.30
2014,07,16,14,52,23.40
2014,07,16,14,53,23.40
2014,07,16,14,54,23.50
2014,07,16,14,55,23.60
2014,07,16,14,56,23.70
2014,07,16,14,57,23.70
2014,07,16,14,58,23.70
2014,07,16,14,59,23.60
2014,07,16,15,00,23.60
2014,07,16,15,01,23.50
2014,07,16,15,02,23.50
2014,07,16,15,03,23.40
2014,07,16,15,04,23.40
2014,07,16,15,05,23.40
2014,07,16,15,06,23.40
2014,07,16,15,07,23.40
2014,07,16,15,08,23.40
2014,07,16,15,09,23.50
2014,07,16,15,10,23.50
2014,07,16,15,11,23.50
2014,07,16,15,12,23.50
2014,07,16,15,13,23.40
2014,07,16,15,14,23.40
2014,07,16,15,15,23.40
2014,07,16,15,16,23.40
2014,07,16,15,17,23.40
2014,07,16,15,18,23.40
2014,07,16,15,19,23.40
2014,07,16,15,20,23.40
2014,07,16,15,21,23.40
2014,07,16,15,22,23.40
2014,07,16,15,23,23.40
2014,07,16,15,24,23.50
2014,07,16,15,25,23.50
2014,07,16,15,26,23.50
2014,07,16,15,27,23.50
2014,07,16,15,28,23.60
2014,07,16,15,29,23.60
2014,07,16,15,30,23.70
2014,07,16,15,31,23.80
2014,07,16,15,32,23.80
2014,07,16,15,33,23.90
2014,07,16,15,34,24.00
2014,07,16,15,35,24.00
2014,07,16,15,36,24.10
2014,07,16,15,37,24.10
2014,07,16,15,38,24.10
2014,07,16,15,39,24.10
2014,07,16,15,40,24.10
2014,07,16,15,41,24.10
2014,07,16,15,42,24.10
2014,07,16,15,43,24.10
2014,07,16,15,44,24.00
2014,07,16,15,45,24.00
2014,07,16,15,46,23.90
2014,07,16,15,47,24.00
2014,07,16,15,48,24.00
2014,07,16,15,49,24.10
2014,07,16,15,50,24.10
2014,07,16,15,51,24.10
2014,07,16,15,52,24.10
2014,07,16,15,53,24.10
2014,07,16,15,54,24.10
2014,07,16,15,55,24.20
2014,07,16,15,56,24.20
2014,07,16,15,57,24.20
2014,07,16,15,58,24.30
2014,07,16,15,59,24.30
2014,07,16,16,00,24.40
2014,07,16,16,01,24.40
2014,07,16,16,02,24.50
2014,07,16,16,03,24.50
2014,07,16,16,04,24.50
2014,07,16,16,05,24.60
2014,07,16,16,06,24.60
2014,07,16,16,07,24.60
2014,07,16,16,08,24.70
2014,07,16,16,09,24.70
2014,07,16,16,10,24.70
2014,07,16,16,11,24.80
2014,07,16,16,12,24.80
2014,07,16,16,13,24.90
2014,07,16,16,14,24.90
2014,07,16,16,15,25.00
2014,07,16,16,16,25.10
2014,07,16,16,17,25.10
2014,07,16,16,18,25.20
2014,07,16,16,19,25.30
2014,07,16,16,20,25.40
2014,07,16,16,21,25.50
2014,07,16,16,22,25.60
2014,07,16,16,23,25.70
2014,07,16,16,24,25.80
2014,07,16,16,25,25.90
2014,07,16,16,26,26.00
2014,07,16,16,27,26.20
2014,07,16,16,28,26.30
2014,07,16,16,29,26.30
2014,07,16,16,30,26.40
2014,07,16,16,31,26.60
2014,07,16,16,32,26.70
2014,07,16,16,33,26.70
2014,07,16,16,34,26.80
2014,07,16,16,35,26.90
2014,07,16,16,36,26.90
2014,07,16,16,37,26.90
2014,07,16,16,38,27.00
2014,07,16,16,39,27.10
2014,07,16,16,40,27.20
2014,07,16,16,41,27.30
2014,07,16,16,42,27.40
2014,07,16,16,43,27.50
2014,07,16,16,44,27.60
2014,07,16,16,45,27.70
2014,07,16,16,46,27.80
2014,07,16,16,47,28.00
2014,07,16,16,48,28.00
2014,07,16,16,49,28.00
2014,07,16,16,50,28.00
2014,07,16,16,51,28.00
2014,07,16,16,52,28.00
2014,07,16,16,53,28.00
2014,07,16,16,54,27.90
2014,07,16,16,55,27.90
2014,07,16,16,56,28.00
2014,07,16,16,57,28.00
2014,07,16,16,58,28.00
2014,07,16,16,59,28.00
2014,07,16,17,00,28.00
2014,07,16,17,01,28.10
2014,07,16,17,02,28.20
2014,07,16,17,03,28.30
2014,07,16,17,04,28.30
2014,07,16,17,05,28.40
2014,07,16,17,06,28.50
2014,07,16,17,07,28.60
2014,07,16,17,08,28.70
2014,07,16,17,09,28.70
2014,07,16,17,10,28.70
2014,07,16,17,11,28.70
2014,07,16,17,12,28.70
2014,07,16,17,13,28.70
2014,07,16,17,14,28.80
2014,07,16,17,15,28.80
2014,07,16,17,16,28.80
2014,07,16,17,17,28.80
2014,07,16,17,18,28.80
2014,07,16,17,19,28.80